TimeCDT,TemperatureF,Dew PointF,Humidity,Sea Level PressureIn,VisibilityMPH,Wind Direction,Wind SpeedMPH,Gust SpeedMPH,PrecipitationIn,Events,Conditions,WindDirDegrees,DateUTC
12:15 AM,43.3,36.1,76,30.39,10.0,ENE,6.9,-,N/A,,Clear,60,2013-10-14 05:15:00
12:35 AM,42.6,36.3,78,30.39,10.0,ENE,4.6,-,N/A,,Clear,70,2013-10-14 05:35:00
12:55 AM,42.3,36.3,79,30.39,10.0,ENE,4.6,-,N/A,,Clear,70,2013-10-14 05:55:00
1:15 AM,42.1,36.5,81,30.40,10.0,Calm,Calm,-,N/A,,Clear,0,2013-10-14 06:15:00
1:35 AM,41.5,35.6,79,30.39,10.0,ENE,4.6,-,N/A,,Clear,60,2013-10-14 06:35:00
1:55 AM,40.3,36.0,85,30.40,2.5,ENE,4.6,-,N/A,,Clear,60,2013-10-14 06:55:00
2:15 AM,41.0,36.5,84,30.40,10.0,Calm,Calm,-,N/A,,Clear,0,2013-10-14 07:15:00
2:35 AM,41.0,36.5,84,30.41,10.0,Calm,Calm,-,N/A,,Clear,0,2013-10-14 07:35:00
2:55 AM,41.2,36.5,83,30.41,10.0,NE,3.5,-,N/A,,Clear,40,2013-10-14 07:55:00
3:15 AM,41.0,36.5,84,30.40,10.0,NNE,4.6,-,N/A,,Clear,30,2013-10-14 08:15:00
3:35 AM,39.6,35.8,86,30.39,10.0,NNE,4.6,-,N/A,,Clear,30,2013-10-14 08:35:00
3:55 AM,38.1,35.1,89,30.39,10.0,NE,5.8,-,N/A,,Clear,40,2013-10-14 08:55:00
4:15 AM,39.4,36.7,90,30.39,10.0,NE,3.5,-,N/A,,Clear,40,2013-10-14 09:15:00
4:35 AM,39.6,36.5,89,30.40,10.0,NE,4.6,-,N/A,,Clear,40,2013-10-14 09:35:00
4:55 AM,38.3,35.6,90,30.39,10.0,NE,6.9,-,N/A,,Clear,40,2013-10-14 09:55:00
5:15 AM,39.6,37.4,92,30.38,10.0,NE,8.1,-,N/A,,Clear,50,2013-10-14 10:15:00
5:35 AM,39.2,37.0,92,30.39,10.0,ENE,6.9,-,N/A,,Clear,60,2013-10-14 10:35:00
5:55 AM,39.6,37.4,92,30.39,10.0,Calm,Calm,-,N/A,,Clear,0,2013-10-14 10:55:00
6:15 AM,39.6,37.4,92,30.39,10.0,ENE,3.5,-,N/A,,Clear,70,2013-10-14 11:15:00
6:35 AM,39.6,37.6,93,30.39,10.0,Calm,Calm,-,N/A,,Clear,0,2013-10-14 11:35:00
6:55 AM,39.2,37.2,93,30.39,10.0,Calm,Calm,-,N/A,,Clear,0,2013-10-14 11:55:00
7:15 AM,39.6,37.0,91,30.39,10.0,Calm,Calm,-,N/A,,Clear,0,2013-10-14 12:15:00
7:35 AM,40.1,38.3,93,30.39,7.0,Calm,Calm,-,N/A,,Clear,0,2013-10-14 12:35:00
7:55 AM,40.3,38.1,92,30.38,7.0,Calm,Calm,-,N/A,,Clear,0,2013-10-14 12:55:00
8:15 AM,43.3,40.1,88,30.39,10.0,East,3.5,-,N/A,,Clear,100,2013-10-14 13:15:00
8:35 AM,45.9,41.0,83,30.39,10.0,East,5.8,-,N/A,,Clear,100,2013-10-14 13:35:00
8:55 AM,48.4,41.5,77,30.38,10.0,East,5.8,-,N/A,,Clear,100,2013-10-14 13:55:00
9:15 AM,50.2,42.4,75,30.39,10.0,ESE,9.2,-,N/A,,Clear,120,2013-10-14 14:15:00
9:35 AM,51.4,43.5,74,30.39,10.0,SE,8.1,-,N/A,,Scattered Clouds,140,2013-10-14 14:35:00
9:55 AM,53.4,44.1,71,30.38,10.0,SE,8.1,-,N/A,,Clear,130,2013-10-14 14:55:00
10:15 AM,55.0,44.1,67,30.38,10.0,SSE,9.2,-,N/A,,Clear,150,2013-10-14 15:15:00
10:35 AM,56.7,43.9,62,30.37,10.0,SE,12.7,16.1,N/A,,Scattered Clouds,130,2013-10-14 15:35:00
10:55 AM,57.6,43.7,60,30.36,10.0,ESE,10.4,-,N/A,,Clear,110,2013-10-14 15:55:00
11:15 AM,58.1,43.3,58,30.36,10.0,ESE,10.4,19.6,N/A,,Clear,120,2013-10-14 16:15:00
11:35 AM,58.6,44.1,58,30.35,10.0,East,10.4,-,N/A,,Clear,100,2013-10-14 16:35:00
11:55 AM,59.9,43.9,55,30.34,10.0,East,9.2,-,N/A,,Clear,100,2013-10-14 16:55:00
12:15 PM,60.3,42.4,52,30.33,10.0,ESE,8.1,-,N/A,,Clear,120,2013-10-14 17:15:00
12:35 PM,61.0,43.2,52,30.31,10.0,East,12.7,18.4,N/A,,Clear,100,2013-10-14 17:35:00
12:55 PM,61.7,42.8,50,30.29,10.0,East,10.4,19.6,N/A,,Clear,90,2013-10-14 17:55:00
1:15 PM,62.6,42.4,48,30.28,10.0,ESE,15.0,18.4,N/A,,Clear,110,2013-10-14 18:15:00
1:35 PM,63.0,41.7,46,30.27,10.0,East,12.7,19.6,N/A,,Clear,90,2013-10-14 18:35:00
1:55 PM,62.8,42.1,47,30.25,10.0,East,9.2,-,N/A,,Clear,80,2013-10-14 18:55:00
2:15 PM,64.4,40.8,42,30.24,10.0,ESE,9.2,-,N/A,,Clear,110,2013-10-14 19:15:00
2:35 PM,64.8,40.5,41,30.24,10.0,East,10.4,-,N/A,,Clear,100,2013-10-14 19:35:00
2:55 PM,65.5,40.1,39,30.23,10.0,East,13.8,17.3,N/A,,Clear,90,2013-10-14 19:55:00
3:15 PM,65.3,40.3,40,30.21,10.0,ESE,10.4,-,N/A,,Clear,110,2013-10-14 20:15:00
3:35 PM,65.8,39.4,38,30.21,10.0,ESE,9.2,-,N/A,,Clear,110,2013-10-14 20:35:00
3:55 PM,66.2,39.7,38,30.20,10.0,East,10.4,-,N/A,,Clear,80,2013-10-14 20:55:00
4:15 PM,65.8,39.4,38,30.19,10.0,East,6.9,-,N/A,,Clear,90,2013-10-14 21:15:00
4:35 PM,65.3,40.8,41,30.18,10.0,East,10.4,-,N/A,,Clear,90,2013-10-14 21:35:00
4:55 PM,64.9,40.3,40,30.17,10.0,East,12.7,-,N/A,,Clear,100,2013-10-14 21:55:00
5:15 PM,64.8,40.1,40,30.18,10.0,East,8.1,-,N/A,,Clear,100,2013-10-14 22:15:00
5:35 PM,63.7,40.1,42,30.18,10.0,East,6.9,-,N/A,,Clear,100,2013-10-14 22:35:00
5:55 PM,62.2,40.3,44,30.17,10.0,East,6.9,-,N/A,,Clear,100,2013-10-14 22:55:00
6:15 PM,60.6,40.1,47,30.18,10.0,East,5.8,-,N/A,,Clear,100,2013-10-14 23:15:00
6:35 PM,57.4,40.6,54,30.17,10.0,East,6.9,-,N/A,,Clear,80,2013-10-14 23:35:00
6:55 PM,55.8,41.0,58,30.16,10.0,East,8.1,-,N/A,,Clear,80,2013-10-14 23:55:00
7:15 PM,55.6,40.6,57,30.16,10.0,East,6.9,-,N/A,,Clear,90,2013-10-15 00:15:00
7:35 PM,54.9,41.2,60,30.16,10.0,East,13.8,-,N/A,,Clear,80,2013-10-15 00:35:00
7:55 PM,55.6,43.7,64,30.16,10.0,East,10.4,-,N/A,,Clear,90,2013-10-15 00:55:00
8:15 PM,54.9,44.2,67,30.15,10.0,East,13.8,17.3,N/A,,Clear,90,2013-10-15 01:15:00
8:35 PM,54.7,45.1,70,30.15,10.0,East,11.5,-,N/A,,Clear,90,2013-10-15 01:35:00
8:55 PM,54.7,45.7,72,30.16,10.0,East,9.2,-,N/A,,Clear,90,2013-10-15 01:55:00
9:15 PM,53.6,45.5,74,30.16,10.0,East,6.9,-,N/A,,Clear,90,2013-10-15 02:15:00
9:35 PM,52.2,45.5,78,30.15,10.0,East,8.1,-,N/A,,Clear,90,2013-10-15 02:35:00
9:55 PM,52.2,45.5,78,30.15,10.0,East,8.1,-,N/A,,Clear,100,2013-10-15 02:55:00
10:15 PM,52.2,46.0,80,30.14,10.0,East,5.8,-,N/A,,Clear,100,2013-10-15 03:15:00
10:35 PM,52.2,46.4,81,30.13,10.0,ESE,8.1,-,N/A,,Clear,110,2013-10-15 03:35:00
10:55 PM,52.9,46.0,78,30.12,10.0,ESE,8.1,-,N/A,,Clear,110,2013-10-15 03:55:00
11:15 PM,53.2,45.9,76,30.12,10.0,ESE,8.1,-,N/A,,Clear,110,2013-10-15 04:15:00
11:35 PM,53.6,45.5,74,30.11,10.0,ESE,9.2,-,N/A,,Clear,110,2013-10-15 04:35:00
11:55 PM,53.6,44.6,72,30.11,10.0,ESE,5.8,-,N/A,,Clear,110,2013-10-15 04:55:00